STARLINK-5940 (56012 NORAD) Tracking and Keplerian Element Data

This shows tracking and keplerian element data for the satellite.

Feedback or suggestion? Click here.




ElementValue
Catalog56012
NameSTARLINK-5940
Epoch Orbit717
Epoch Day127.00001157
Epoch Year2023
RAAN293.2085
Inclination42.9994
Eccentricity0.0001439
Argument of Perigee273.9697
Mean Anonmoly302.8399
Mean Motion15.54905187
Decay Rate-0.00926032
L11 56012U 23042AC 23127.00001157 -.00926032 00000+0 -14891-1 0 9991
L22 56012 42.9994 293.2085 0001439 273.9697 302.8399 15.54905187 7176



Live tracking and technical data element details for STARLINK-5940 (NORAD 56012). STARLINK-5940 can be tracked NOW for your location showing map with azimuth and elevation plus other details from your city location.







IsCatalogInMostPopularTable: catalog: 56012, numindb: -1

Insert: records affected: 1


GetName: 56012 STARLINK-5940

Hit Count: inserted at: Sat, 03 Jun 2023 19:07:12 GMT